EW6663 Weather Reports


Display with metric or nautical units.
time (UTC)temp
F
wind
direction
speed
MPH
gust
MPH
rain 1hr
in
rain 24hr
in
rain mn
in
humidity
%
barometer
mb
20260508003058 73 334 0.0 4.0 0.00 0.01 0.00 41 1011.9
20260508001533 72 334 2.0 7.0 0.00 0.01 0.00 42 1011.9
20260508000045 72 334 0.0 5.0 0.00 0.01 0.00 45 1012.1
20260507234614 70 334 4.0 8.0 0.00 0.01 0.00 46 1012.1
20260507233032 69 333 3.0 8.0 0.00 0.01 0.00 46 1012.2
20260507231606 69 333 0.0 9.0 0.00 0.01 0.00 48 1012.3
20260507230017 69 328 5.0 11.0 0.00 0.01 0.00 49 1012.3
20260507224537 71 334 7.0 13.0 0.00 0.01 0.00 44 1012.3
20260507223055 73 14 0.0 4.0 0.00 0.01 0.00 45 1012.3
20260507221614 69 14 0.0 6.0 0.00 0.01 0.00 50 1012.4
20260507220112 71 343 1.0 4.0 0.00 0.01 0.00 45 1012.5
20260507214522 73 341 0.0 3.0 0.00 0.01 0.00 44 1012.8
20260507213042 71 341 0.0 4.0 0.00 0.01 0.00 47 1012.9
20260507211524 70 341 0.0 2.0 0.00 0.01 0.00 49 1013.2
20260507210040 70 341 0.0 4.0 0.00 0.01 0.00 49 1013.3
20260507204508 70 339 0.0 4.0 0.00 0.01 0.00 46 1013.5
20260507203151 71 323 0.0 2.0 0.00 0.01 0.00 47 1013.7
20260507201526 71 318 0.0 2.0 0.00 0.01 0.00 47 1013.9
20260507200104 68 317 0.0 2.0 0.00 0.01 0.00 51 1014.1
20260507194623 67 315 0.0 2.0 0.00 0.01 0.00 55 1014.1
20260507193050 67 315 0.0 1.0 0.00 0.01 0.00 59 1014.2
20260507191518 64 314 0.0 0.0 0.00 0.01 0.00 62 1014.5
20260507190037 61 315 0.0 0.0 0.00 0.01 0.00 65 1014.7
20260507184603 61 314 0.0 0.0 0.00 0.01 0.00 66 1014.9
20260507183013 59 315 0.0 0.0 0.00 0.01 0.00 68 1014.8
20260507181532 59 315 0.0 1.0 0.00 0.01 0.00 69 1014.8
20260507180117 58 315 0.0 1.0 0.00 0.01 0.00 69 1014.9
20260507174535 58 315 0.0 0.0 0.00 0.01 0.00 69 1015.0
20260507173017 56 315 0.0 2.0 0.00 0.01 0.00 70 1014.9
20260507171555 56 315 1.0 5.0 0.00 0.01 0.00 70 1015.2
20260507170025 56 278 0.0 4.0 0.00 0.01 0.00 70 1015.2
20260507164548 56 272 0.0 2.0 0.00 0.01 0.00 70 1015.4
20260507163114 56 272 0.0 0.0 0.00 0.01 0.00 70 1015.3
20260507161531 56 272 0.0 0.0 0.00 0.01 0.00 70 1015.2
20260507160100 55 272 0.0 0.0 0.00 0.01 0.00 69 1015.2
20260507154601 56 272 0.0 0.0 0.00 0.01 0.00 70 1014.9
20260507153013 55 272 0.0 0.0 0.00 0.01 0.00 70 1014.9
20260507151546 55 272 0.0 0.0 0.00 0.01 0.00 70 1014.9
20260507150013 56 272 0.0 0.0 0.00 0.01 0.00 69 1014.8
20260507144537 56 272 0.0 0.0 0.00 0.01 0.00 69 1014.7
20260507143011 55 272 0.0 1.0 0.00 0.01 0.00 69 1014.6
20260507141512 53 272 0.0 0.0 0.00 0.01 0.00 65 1014.4
20260507140031 51 272 0.0 0.0 0.00 0.01 0.00 65 1014.4
20260507134616 50 272 0.0 0.0 0.00 0.01 0.00 66 1014.4
20260507133035 50 272 0.0 0.0 0.00 0.01 0.00 67 1014.2
20260507131547 51 272 0.0 0.0 0.00 0.01 0.00 67 1014.0
20260507130050 51 272 0.0 0.0 0.00 0.01 0.00 65 1014.0
20260507124525 50 272 0.0 3.0 0.00 0.01 0.00 66 1013.9
20260507123042 49 272 2.0 7.0 0.00 0.01 0.00 67 1013.7
20260507121507 47 259 0.0 0.0 0.00 0.01 0.00 70 1013.5
20260507120038 46 259 0.0 3.0 0.00 0.01 0.00 72 1013.3
20260507114546 48 259 4.0 6.0 0.00 0.01 0.00 72 1013.3
20260507113042 48 259 2.0 7.0 0.00 0.01 0.00 72 1013.3
20260507111510 49 261 4.0 9.0 0.00 0.01 0.00 73 1013.4
20260507110036 49 272 6.0 9.0 0.00 0.01 0.00 73 1013.5
20260507104526 51 346 1.0 4.0 0.00 0.01 0.00 73 1013.4
20260507103056 53 37 0.0 3.0 0.00 0.01 0.00 73 1013.5
20260507101549 54 37 0.0 6.0 0.00 0.01 0.00 72 1013.8
20260507100046 54 349 0.0 2.0 0.00 0.01 0.00 73 1014.1
20260507094525 54 344 0.0 3.0 0.00 0.01 0.00 73 1014.0
20260507093113 54 327 4.0 8.0 0.00 0.01 0.00 72 1014.0
20260507091553 55 36 1.0 6.0 0.00 0.01 0.00 70 1013.8
20260507090112 56 5 2.0 5.0 0.00 0.01 0.00 68 1013.3
20260507084526 57 51 0.0 5.0 0.00 0.01 0.00 65 1013.3
20260507083107 56 323 1.0 9.0 0.00 0.01 0.00 67 1013.5
20260507081531 56 121 2.0 4.0 0.00 0.01 0.00 70 1013.3
20260507080037 56 121 0.0 4.0 0.00 0.01 0.01 68 1013.1
20260507074559 57 121 1.0 9.0 0.00 0.01 0.01 68 1013.3
20260507073030 56 87 1.0 7.0 0.01 0.01 0.01 68 1013.1
20260507071602 57 114 8.0 12.0 0.01 0.01 0.01 69 1013.4
20260507070015 57 311 8.0 18.0 0.01 0.01 0.01 68 1013.0
20260507064527 56 292 7.0 12.0 0.00 0.00 0.00 69 1013.5
20260507061537 57 329 0.0 7.0 0.00 0.00 0.00 65 1013.1
20260507060114 58 12 4.0 13.0 0.00 0.00 0.00 62 1013.0
20260507054532 59 312 9.0 18.0 0.00 0.00 0.00 59 1013.2
20260507053002 60 161 0.0 5.0 0.00 0.00 0.00 62 1012.7
20260507051551 59 161 1.0 6.0 0.00 0.00 0.00 61 1012.6
20260507050139 58 161 0.0 0.0 0.00 0.00 0.00 65 1012.5
20260507044534 57 161 0.0 2.0 0.00 0.00 0.00 66 1012.5
20260507043047 57 158 0.0 0.0 0.00 0.00 0.00 68 1012.5
20260507041510 55 153 0.0 0.0 0.00 0.00 0.00 71 1012.7
20260507040041 56 153 0.0 0.0 0.00 0.00 0.00 71 1012.6
20260507034511 56 153 0.0 0.0 0.00 0.00 0.00 71 1012.5
20260507033036 57 153 0.0 0.0 0.00 0.00 0.00 71 1012.2
20260507031532 57 153 1.0 4.0 0.00 0.00 0.00 71 1012.1
20260507030116 58 153 1.0 4.0 0.00 0.00 0.00 70 1011.9
20260507024508 60 153 0.0 0.0 0.00 0.00 0.00 66 1012.0
20260507023030 61 153 0.0 0.0 0.00 0.00 0.00 60 1012.0
20260507021539 63 153 0.0 0.0 0.00 0.00 0.00 62 1012.0
20260507020020 63 153 0.0 0.0 0.00 0.00 0.00 57 1011.9
20260507013041 64 153 0.0 0.0 0.00 0.00 0.00 56 1011.9
20260507011551 65 153 0.0 0.0 0.00 0.00 0.00 58 1011.9
20260507010120 66 153 0.0 0.0 0.00 0.00 0.00 54 1012.0
20260507004525 67 153 0.0 2.0 0.00 0.00 0.00 49 1012.1